Regional Weather Roundup
Issued by NWS

Home | Current Version | Previous Version | Text Only | Print | Product List | Glossary Off
Versions: 1 2 3 4 5 6 7 8 9 10 11 12 13 14 15 16 17 18 19 20 21 22 23 24 25 26 27 28 29 30 31 32 33 34 35 36 37 38 39 40 41 42 43 44 45 46 47 48 49 50

000
ASUS45 KTFX 042204
RWRMT
MONTANA HOURLY WEATHER ROUNDUP
NATIONAL WEATHER SERVICE GREAT FALLS MT
304 PM MST WED MAR 4 2015

NOTE: "FAIR" INDICATES FEW OR NO CLOUDS BELOW 12000 FEET WITH NO
SIGNIFICANT WEATHER AND/OR OBSTRUCTIONS TO VISIBILITY.

* THESE STATIONS ARE NOT UNDER NWS QUALITY CONTROL. THEY DO NOT
   REPORT WEATHER SUCH AS PRECIPITATION OR FOG.

MTZ001>007-043-042300-
WEST OF THE DIVIDE
CITY           SKY/WX    TMP DP  RH WIND       PRES   REMARKS
* ANACONDA     SUNNY     28  10  47 N7         N/A   WCI  21
* ESSEX        N/A       32   2  28 SE6        N/A   WCI  26
* LINCOLN      N/A       35   5  28 SW7G18     N/A   WCI  29
* LOOKOUT PASS N/A       31   6  34 NE7        N/A   WCI  24
* POLSON       N/A       37  12  36 S4G11      N/A
* RONAN APT    SUNNY     36   9  32 SE6        N/A   WCI  31
* SEELEY LAKE  N/A       35   3  26 W8G14      N/A   WCI  28
* THOMP F APT  SUNNY     28   3  34 S12G20     N/A   WCI  18
$$

MTZ008-052>055-042300-
SOUTHWEST MONTANA
CITY           SKY/WX    TMP DP  RH WIND       PRES   REMARKS
* W YELLOWSTON SUNNY     28  -2  27 SW5G11     N/A   WCI  22
* THREE FORKS  SUNNY     36   5  27 SW10G20    N/A   WCI  29
* BOULDER HILL N/A       35   1  23 N2         N/A
* MONIDA PASS  N/A       27   2  34 SW5G10     N/A   WCI  21
* RAYNOLDS PAS N/A       26   6  42 SE6        N/A   WCI  19
* WHITEHALL    N/A       38   4  24 SW17G26    N/A   WCI  29
* WISE RIVER   N/A       33  -1  23 NW11G19    N/A   WCI  24
$$

MTZ009>010-012-014-046-048-049-054-042300-
EAST SLOPES AND CENTRAL MONTANA
CITY           SKY/WX    TMP DP  RH WIND       PRES   REMARKS
* DEARBORN     N/A       33   9  36 S6G15      N/A   WCI  27
* EAST GLACIER N/A       27   7  42 W27G34     N/A   WCI  11
* MONARCH      N/A       25  -2  30 W17G22     N/A   WCI  12
* PENDROY      N/A       32  12  43 S6         N/A   WCI  26
* ROGERS PASS  N/A       26   4  39 SE17G28    N/A   WCI  13
* SWEET GRASS  N/A       34   9  35 SW13       N/A   WCI  25
$$

MTZ011-013-016-021-035-040-045-047-050-051-042300-
NORTH CENTRAL MONTANA
CITY           SKY/WX    TMP DP  RH WIND       PRES   REMARKS
* CHESTER      N/A       32   0  25 SW6G11     N/A   WCI  26
* DENTON       N/A       31   4  31 NW2G7      N/A
* GEYSER       N/A       32   1  26 NW14       N/A   WCI  22
* JUDITH GAP   N/A       23   4  44 VRB9       N/A   WCI  13
* LOMA         N/A       35   9  34 SE8G13     N/A   WCI  28
$$

MTZ017>020-022>027-061-062-042300-
NORTHEAST MONTANA
CITY           SKY/WX    TMP DP  RH WIND       PRES   REMARKS
JORDAN         SUNNY     23  -4  30 W9        30.18F WCI  13
* BEAVER HILL  N/A       11  -8  42 W12G17     N/A   WCI  -4
* CIRCLE       N/A       17  -1  45 NW4G14     N/A
* LINDSAY DVD  N/A       12  -6  44 W13G21     N/A   WCI  -3
* NAVAJO       N/A        5  -9  52 SW7        N/A   WCI  -7
* SACO         N/A       18  -5  35 SE3        N/A
$$

MTZ028>042-056>058-042300-
SOUTHCENTRAL AND SOUTHEAST MONTANA
CITY           SKY/WX    TMP DP  RH WIND       PRES   REMARKS
* LAUREL APT   SUNNY     28   7  41 S9         N/A   WCI  19
* ROUNDUP APT  SUNNY     30   0  27 N/A        N/A
* ALZADA       N/A       14  -3  46 W14        N/A   WCI  -1
* HYSHAM       N/A       23  -4  30 VRB1G12    N/A
* REED POINT   N/A       33   9  36 W23G32     N/A   WCI  20
$$

REGIONAL REPORTS...DAKOTAS
CITY           SKY/WX    TMP DP  RH WIND       PRES   REMARKS
BUFFALO SD     SUNNY     16  -6  37 NW20G26   30.12S WCI  -1
$$

REGIONAL REPORTS...WYOMING/IDAHO/WASHINGTON
CITY           SKY/WX    TMP DP  RH WIND       PRES   REMARKS
YELLOWSTONE LA SUNNY     16   0  49 VRB6      30.05R WCI   7

$$



USA.gov is the U.S. government's official web portal to all federal, state and local government web resources and services.